Lexington Weather

Lexington, Massachusetts, USA

59°F
11/30/2020 6:33pm 
  • Lexington Conditions: Rain, Mist, Overcast
  • Temperature: 59.2°F / 15.1°CColder 0.2°F than last hour.
  • Dew Point: 57.4°FDecreased 0.2°Fsince last hour.
  • Relative Humidity: 94
  • Wind: Wind from SE SE 8 mph, 10-min avg: 7 mph, gust: 24 mph
  • Barometer: 29.55 inFalling 0.03  inHg/hr Falling Slowly
  • Visibility: 3 miles
  • Rain Today: 0.58 in
  •   
Southeast Middlesex County - Wind Advisory - Special Weather Statement
 - SEE ALL NEARBY ALERTS -

Regional Weather Roundup
for Boston / Norton, MA

        
000
ASUS41 KBOX 250904
RWRBOX

REGIONAL WEATHER ROUNDUP
NATIONAL WEATHER SERVICE BOSTON/NORTON MA
400 AM EST WED NOV 25 2020

NOTE:  "FAIR" INDICATES FEW OR NO CLOUDS BELOW 12,000 FEET WITH NO 
SIGNIFICANT WEATHER AND/OR OBSTRUCTIONS TO VISIBILITY.

MAZALL-251000-
EASTERN MASSACHUSETTS
  
CITY           SKY/WX    TMP DP  RH WIND       PRES   REMARKS
BOSTON         CLOUDY    29  18  63 W7        30.49R WCI  22          
BEVERLY        MOCLDY    28  20  71 N5        30.47S WCI  23          
LAWRENCE       MOCLDY    26  17  68 CALM      30.50R                  
BEDFORD        CLOUDY    27  19  72 CALM      30.47S                  
BLUE HILL        N/A     26  15  63 NW6       30.43S WCI  19          
NORWOOD        CLOUDY    30  19  63 CALM      30.48S                  
MARSHFIELD     CLOUDY    30  27  86 VRB3      30.47R                  
PLYMOUTH       MOCLDY    28  23  81 CALM      30.47R                  
TAUNTON        MOCLDY    29  24  82 CALM      30.46S                  
NEW BEDFORD    MOCLDY    30  26  85 N3        30.46S                  
$$

MAZALL-251000-
CAPE COD AND THE ISLANDS
  
CITY           SKY/WX    TMP DP  RH WIND       PRES   REMARKS
FALMOUTH       MOCLDY    27  23  86 CALM      30.46S                  
HYANNIS        MOCLDY    27  23  85 CALM      30.46S                  
CHATHAM        MOCLDY    31  23  72 CALM      30.47F                  
PROVINCETOWN   MOCLDY    32  27  81 CALM      30.48S                  
NANTUCKET      MOCLDY    38  27  64 E6        30.46S                  
MARTHAS VNYRD  MOCLDY    31  25  78 E3        30.46S                  
$$
 
MAZALL-251000-
CENTRAL AND WESTERN MASSACHUSETTS
  
CITY           SKY/WX    TMP DP  RH WIND       PRES   REMARKS
WORCESTER      CLOUDY    26  13  57 NE6       30.42S WCI  19          
FITCHBURG      CLOUDY    27  17  66 CALM      30.47F                  
ORANGE         CLOUDY    28  19  69 CALM      30.45F                  
SPRINGFIELD    CLOUDY    31  18  58 E6        30.42F WCI  25          
WESTFIELD      CLOUDY    32  20  61 NE3       30.42F                  
NORTH ADAMS    CLOUDY    33  19  56 E12       30.37F WCI  24          
PITTSFIELD     CLOUDY    31  20  63 E8        30.33F WCI  23          
$$
 
RIZALL-251000-
RHODE ISLAND
  
CITY           SKY/WX    TMP DP  RH WIND       PRES   REMARKS
PROVIDENCE     NOT AVBL                                               
NEWPORT        CLOUDY    35  23  61 NE6       30.45S WCI  30          
BLOCK ISLAND   CLOUDY    43  31  62 SE5       30.43F                  
SMITHFIELD     CLOUDY    29  20  69 NE6       30.45F WCI  23          
WESTERLY       CLOUDY    33  23  66 N8        30.44F WCI  26          
$$
 
CTZALL-251000-
CONNECTICUT
  
CITY           SKY/WX    TMP DP  RH WIND       PRES   REMARKS
BRADLEY INTL   CLOUDY    33  23  66 NE5       30.43F WCI  29          
HARTFORD       CLOUDY    36  20  52 E5        30.43F                  
BRIDGEPORT     CLOUDY    47  32  56 SE13      30.38F                  
DANBURY        CLOUDY    37  24  59 NE3       30.38F                  
GROTON         CLOUDY    37  25  61 NE12      30.43F WCI  29          
NEW HAVEN      CLOUDY    42  29  59 E7        30.39F                  
CHESTER        MOCLDY   N/A N/A N/A CALM      30.40F                  
MERIDEN        CLOUDY    35  25  66 N3        30.42F                  
WILLIMANTIC    CLOUDY    32  21  64 NE5       30.44F WCI  27          
OXFORD         CLOUDY    35  24  64 E8        30.37F WCI  29          
$$

MEZ002-015-021-024-NHZ003-005-008-011-012-014-VTZ005-008-251000-
NORTHERN NEW ENGLAND
  
CITY           SKY/WX    TMP DP  RH WIND       PRES   REMARKS
PORTLAND ME    MOCLDY    23  17  78 N5        30.51S WCI  17          
BANGOR ME      MOCLDY    20  14  77 SW3       30.53R                  
CONCORD NH     MOCLDY    24  15  68 NE3       30.47F                  
MANCHESTER NH  CLOUDY    27  15  61 N3        30.45F                  
NASHUA NH      CLOUDY    26  18  71 NW3       30.48F                  
PORTSMOUTH NH  CLOUDY    26  13  57 N6        30.47F WCI  20          
JAFFREY NH     CLOUDY    26  14  60 CALM      30.41S                  
KEENE NH       CLOUDY    26  20  77 CALM      30.45S                  
BURLINGTON VT  CLOUDY    26  14  60 SE5       30.35F WCI  20          
MT. WASHINGTON NOT AVBL                                               
$$

NYZ052-076-251000-
EASTERN NEW YORK
  
CITY           SKY/WX    TMP DP  RH WIND       PRES   REMARKS
ALBANY         FLURRIES  26  18  71 CALM      30.37F                  
NEW YORK CITY  CLOUDY    46  28  49 SE5       30.36F                  
$$
 
ANZALL-251000-
MARINE OBSERVATIONS
  
STATION/POSITION TIME  TEMP    WIND        PRES    VSBY  WAVE
                       AIR SEA DIR/SP/G                  HT/PER
                 (UTC) (F)     (DEG/KT/KT) (MB)    (MI)  (FT/S)
BOSTON BUOY      0840   40 50  100/ 10/ 12 1032.2F
BUZZARDS BAY     0800           90/ 14/ 16 1031.9F
NANTUCKET SOUND  0840      51  120/  8/ 12   N/A
MASS BAY-STELLWA NOT AVBL
ISLE OF SHOALS   0800   34     110/  9/ 11 1032.0F
S OF BLOCK IS    0826      57                N/A           2/11
$$

......................KEY.........................
  SKY/WX - SKY CONDITION/PRESENT WEATHER
  TMP    - TEMPERATURE IN FAHRENHEIT
  DWPT   - DEWPOINT IN FAHRENHEIT
  RH     - RELATIVE HUMIDITY IN PERCENT
  WIND   - DIRECTION AND SPEED IN MPH
  PRES   - MEAN SEA LEVEL PRESSURE IN INCHES OF HG
  WCI    - WIND CHILL INDEX
  VSB    - VISIBILITY IN MILES
  HX     - HEAT INDEX
  TC     - TEMPERATURE IN CELSIUS
  VRB    - VARIABLE WIND DIRECTION
  N/A    - NOT AVAILABLE
  
      

Other recent Regional Weather Roundups

Mon Nov 30, 6:04pm

Mon Nov 30, 5:05pm

Mon Nov 30, 4:04pm

Mon Nov 30, 3:05pm

Mon Nov 30, 2:05pm

Mon Nov 30, 1:04pm

Mon Nov 30, 12:05pm

Mon Nov 30, 11:04am

Mon Nov 30, 10:04am

Mon Nov 30, 9:04am

Mon Nov 30, 8:04am

Mon Nov 30, 7:05am

Mon Nov 30, 6:04am

Mon Nov 30, 5:05am

Mon Nov 30, 4:04am

Mon Nov 30, 3:04am

Mon Nov 30, 2:04am

Mon Nov 30, 1:04am

Mon Nov 30, 12:04am

Sun Nov 29, 11:04pm

Sun Nov 29, 10:04pm

Sun Nov 29, 9:04pm

Sun Nov 29, 8:04pm

Sun Nov 29, 7:04pm

Sun Nov 29, 6:04pm

Sun Nov 29, 5:04pm

Sun Nov 29, 4:05pm

Sun Nov 29, 3:04pm

Sun Nov 29, 2:04pm

Sun Nov 29, 1:04pm

Sun Nov 29, 12:04pm

Sun Nov 29, 11:04am

Sun Nov 29, 10:04am

Sun Nov 29, 9:04am

Sun Nov 29, 8:05am

Sun Nov 29, 7:04am

Sun Nov 29, 6:04am

Sun Nov 29, 5:04am

Sun Nov 29, 4:04am

Sun Nov 29, 3:04am

Sun Nov 29, 2:05am

Sun Nov 29, 1:04am

Sun Nov 29, 12:04am

Sat Nov 28, 11:04pm

Sat Nov 28, 10:04pm

Sat Nov 28, 9:04pm

Sat Nov 28, 8:04pm

Sat Nov 28, 7:04pm

Sat Nov 28, 6:04pm

Sat Nov 28, 5:04pm

Sat Nov 28, 4:04pm

Sat Nov 28, 3:04pm

Sat Nov 28, 2:04pm

Sat Nov 28, 1:04pm

Sat Nov 28, 12:04pm

Sat Nov 28, 11:04am

Sat Nov 28, 10:04am

Sat Nov 28, 9:04am

Sat Nov 28, 8:04am

Sat Nov 28, 7:04am

Sat Nov 28, 6:04am

Sat Nov 28, 5:04am

Sat Nov 28, 4:04am

Sat Nov 28, 3:05am

Sat Nov 28, 2:04am

Sat Nov 28, 1:04am

Sat Nov 28, 12:04am

Fri Nov 27, 11:05pm

Fri Nov 27, 10:04pm

Fri Nov 27, 9:04pm

Fri Nov 27, 8:04pm

Fri Nov 27, 7:04pm

Fri Nov 27, 6:04pm

Fri Nov 27, 5:04pm

Fri Nov 27, 4:05pm

Fri Nov 27, 3:05pm

Fri Nov 27, 2:05pm

Fri Nov 27, 1:04pm

Fri Nov 27, 12:04pm

Fri Nov 27, 11:04am

Fri Nov 27, 10:04am

Fri Nov 27, 9:05am

Fri Nov 27, 8:04am

Fri Nov 27, 7:04am

Fri Nov 27, 6:04am

Fri Nov 27, 5:04am

Fri Nov 27, 4:04am

Fri Nov 27, 3:04am

Fri Nov 27, 2:04am

Fri Nov 27, 1:04am

Fri Nov 27, 12:04am

Thu Nov 26, 11:04pm

Thu Nov 26, 10:04pm

Thu Nov 26, 9:04pm

Thu Nov 26, 8:04pm

Thu Nov 26, 7:04pm

Thu Nov 26, 6:04pm

Thu Nov 26, 5:04pm

Thu Nov 26, 4:04pm

Thu Nov 26, 2:04pm

Thu Nov 26, 1:04pm

Thu Nov 26, 12:04pm

Thu Nov 26, 11:04am

Thu Nov 26, 10:04am

Thu Nov 26, 9:04am

Thu Nov 26, 8:04am

Thu Nov 26, 7:04am

Thu Nov 26, 6:04am

Thu Nov 26, 5:04am

Thu Nov 26, 4:04am

Thu Nov 26, 3:04am

Thu Nov 26, 2:04am

Thu Nov 26, 1:04am

Thu Nov 26, 12:04am

Wed Nov 25, 11:04pm

Wed Nov 25, 10:04pm

Wed Nov 25, 9:04pm

Wed Nov 25, 8:04pm

Wed Nov 25, 7:04pm

Wed Nov 25, 6:04pm

Wed Nov 25, 5:04pm

Wed Nov 25, 4:04pm

Wed Nov 25, 3:05pm

Wed Nov 25, 2:04pm

Wed Nov 25, 1:04pm

Wed Nov 25, 12:05pm

Wed Nov 25, 11:04am

Wed Nov 25, 10:04am

Wed Nov 25, 9:04am

Wed Nov 25, 8:04am

Wed Nov 25, 7:04am

Wed Nov 25, 6:04am

Wed Nov 25, 5:04am

Wed Nov 25, 3:04am

Wed Nov 25, 2:04am

Wed Nov 25, 1:04am

Wed Nov 25, 12:04am

Tue Nov 24, 11:04pm

Tue Nov 24, 10:04pm

Tue Nov 24, 9:04pm

Tue Nov 24, 8:04pm

Tue Nov 24, 7:04pm

Tue Nov 24, 6:04pm

Tue Nov 24, 5:04pm

Tue Nov 24, 4:05pm

Tue Nov 24, 3:05pm

Tue Nov 24, 2:05pm

Tue Nov 24, 1:05pm

Tue Nov 24, 12:04pm

Tue Nov 24, 11:04am

Tue Nov 24, 10:04am

Tue Nov 24, 9:04am

Tue Nov 24, 8:04am

Tue Nov 24, 7:04am

Tue Nov 24, 6:04am

Tue Nov 24, 5:04am

Tue Nov 24, 4:05am

Tue Nov 24, 3:04am

Tue Nov 24, 2:04am

Tue Nov 24, 1:04am

Tue Nov 24, 12:05am

Mon Nov 23, 11:04pm

Mon Nov 23, 10:04pm

Mon Nov 23, 9:04pm

Mon Nov 23, 8:04pm

Mon Nov 23, 7:04pm

Meta data:

ID: 4bad7f4f-b6dc-4832-81cb-6306e1b0a7d2
Link: https://api.weather.gov/products/4bad7f4f-b6dc-4832-81cb-6306e1b0a7d2